Weather History for KRAP - September, 2012

Change the Weather History Date:

Thursday, September 13, 2012

  Actual Average Record
Temperature  
Mean Temperature 60 °F 62 °F  
Max Temperature 80 °F 77 °F 92 °F (2006)
Min Temperature 40 °F 47 °F 29 °F (1949)
Degree Days  
Heating Degree Days 5 5  
Month to date heating degree days 16 47  
Since 1 July heating degree days 21 84  
Cooling Degree Days 0 2  
Month to date cooling degree days 58 42  
Year to date cooling degree days 928 614  
Growing Degree Days 10 (Base 50)    
Moisture  
Dew Point 27 °F    
Average Humidity 39    
Maximum Humidity 67    
Minimum Humidity 10    
Precipitation  
Precipitation 0.00 in 0.04 in 2.13 in (1966)
Month to date precipitation 0.14 0.55  
Year to date precipitation 10.27 13.18  
Snow  
Snow 0.00 in 0.00 in - ()
Month to date snowfall 0.0 0.0  
Since 1 July snowfall 0.0 0.0  
Since 1 September snowfall 0.0 0.0  
Snow Depth 0.00 in    
Sea Level Pressure  
Sea Level Pressure 30.33 in    
Wind  
Wind Speed 7 mph (NNW)    
Max Wind Speed 20 mph    
Max Gust Speed 23 mph    
Visibility 10 miles    
Events      
T = Trace of Precipitation, MM = Missing Value Source: NWS Daily Summary

Daily Weather History Graph

Daily Weather History Graph

Search for Another Location

Airport or City:

Trip Planner

Search our weather history database for the weather conditions in past years. The results will help you decide how hot, cold, wet, or windy it might be!

Date:

Astronomy

Sep. 13, 2012 Rise Set
Actual Time 6:29 AM MDT 7:05 PM MDT
Civil Twilight 6:00 AM MDT 7:34 PM MDT
Nautical Twilight 5:26 AM MDT 8:08 PM MDT
Astronomical Twilight 4:50 AM MDT 8:44 PM MDT
Moon 3:47 AM MDT (9/13) 5:32 PM MDT (9/13)
Length of Visible Light 13h 33m
Length of Day
12h 35m
Waning Crescent, 7% of the Moon is Illuminated
Sep 13
Waning Crescent
Sep 15
New
Sep 22
First Quarter
Sep 29
Full
Oct 8
Last Quarter

Hourly Weather History & Observations

Time (MDT) Temp. Dew Point Humidity Pressure Visibility Wind Dir Wind Speed Gust Speed Precip Events Conditions
12:52 AM 48.0 °F 21.9 °F 36% 30.33 in 10.0 mi WNW 3.5 mph - N/A   Clear
1:52 AM 42.1 °F 23.0 °F 47% 30.33 in 10.0 mi Calm Calm - N/A   Clear
2:52 AM 50.0 °F 21.9 °F 33% 30.32 in 10.0 mi West 6.9 mph - N/A   Clear
3:52 AM 46.0 °F 24.1 °F 42% 30.32 in 10.0 mi Calm Calm - N/A   Clear
4:52 AM 46.9 °F 35.1 °F 63% 30.33 in 10.0 mi Calm Calm - N/A   Clear
5:52 AM 43.0 °F 32.0 °F 65% 30.34 in 10.0 mi Calm Calm - N/A   Clear
6:52 AM 42.1 °F 32.0 °F 67% 30.37 in 10.0 mi Calm Calm - N/A   Clear
7:52 AM 55.0 °F 41.0 °F 59% 30.36 in 10.0 mi West 4.6 mph - N/A   Clear
8:52 AM 60.1 °F 44.1 °F 55% 30.35 in 10.0 mi SW 3.5 mph - N/A   Clear
9:52 AM 66.0 °F 42.1 °F 42% 30.35 in 10.0 mi Calm Calm - N/A   Clear
10:52 AM 71.1 °F 33.1 °F 25% 30.34 in 10.0 mi Variable 5.8 mph - N/A   Clear
11:52 AM 73.9 °F 28.9 °F 19% 30.32 in 10.0 mi North 11.5 mph 17.3 mph N/A   Clear
12:52 PM 73.9 °F 26.1 °F 17% 30.32 in 10.0 mi Variable 3.5 mph - N/A   Clear
1:52 PM 75.9 °F 28.0 °F 17% 30.32 in 10.0 mi Calm Calm - N/A   Clear
2:52 PM 78.1 °F 28.0 °F 16% 30.28 in 10.0 mi ENE 4.6 mph - N/A   Clear
3:52 PM 80.1 °F 19.9 °F 11% 30.27 in 10.0 mi North 12.7 mph 17.3 mph N/A   Clear
4:52 PM 78.1 °F 19.9 °F 11% 30.27 in 10.0 mi North 12.7 mph 19.6 mph N/A   Clear
5:52 PM 77.0 °F 19.0 °F 11% 30.29 in 10.0 mi North 15.0 mph - N/A   Clear
6:52 PM 71.1 °F 21.0 °F 15% 30.30 in 10.0 mi North 15.0 mph - N/A   Clear
7:52 PM 64.0 °F 21.0 °F 19% 30.32 in 10.0 mi North 11.5 mph - N/A   Clear
8:52 PM 60.1 °F 21.9 °F 23% 30.35 in 10.0 mi NNW 11.5 mph - N/A   Clear
9:52 PM 57.9 °F 23.0 °F 26% 30.35 in 10.0 mi NNW 10.4 mph - N/A   Clear
10:52 PM 57.0 °F 23.0 °F 27% 30.35 in 10.0 mi NW 10.4 mph - N/A   Clear
11:52 PM 55.9 °F 23.0 °F 28% 30.35 in 10.0 mi NW 10.4 mph - N/A   Clear